Regional Weather Roundup
Issued by NWS

Home | Current Version | Previous Version | Text Only | Print | Product List | Glossary Off
Versions: 1 2 3 4 5 6 7 8 9 10 11 12 13 14 15 16 17 18 19 20 21 22 23 24 25 26 27 28 29 30 31 32 33 34 35 36 37 38 39 40 41 42 43 44 45 46 47 48 49 50

000
ASUS43 KTOP 201859
RWRKS

WEATHER ROUNDUP FOR KANSAS
NATIONAL WEATHER SERVICE GOODLAND KS
100 PM CST THU NOV 20 2014

NOTE:  "FAIR" INDICATES FEW OR NO CLOUDS BELOW 12,000 FEET WITH NO
SIGNIFICANT WEATHER AND/OR OBSTRUCTIONS TO VISIBILITY.

KSZ001>006-013>018-027>032-041>047-202000-
NORTHWEST KANSAS

CITY           SKY/WX    TMP DP  RH WIND       PRES   REMARKS
GOODLAND       SUNNY     51  20  29 CALM      30.02F
HAYS           SUNNY     48  25  40 S13       30.07F
HILL CITY      SUNNY     46  26  45 CALM      30.05F
RUSSELL        SUNNY     46  24  42 SE13      30.07F
$$

KSZ061>065-074>080-084>089-202000-
SOUTHWEST KANSAS

CITY           SKY/WX    TMP DP  RH WIND       PRES   REMARKS
DODGE CITY     MOSUNNY   51  26  37 S12       30.04F
ELKHART          N/A     44  26  49 E5          N/A
GARDEN CITY    MOSUNNY   50  28  42 VRB7      30.01F
GREAT BEND     SUNNY     45  25  45 S9        30.09F
LIBERAL        SUNNY     50  28  43 SE7       30.04F
$$

KSZ066>073-081>083-090>101-202000-
SOUTHEAST KANSAS

CITY           SKY/WX    TMP DP  RH WIND       PRES   REMARKS
CHANUTE        SUNNY     46  23  40 E9        30.16F
COFFEYVILLE    SUNNY     49  25  39 E10       30.14F
HUTCHINSON     SUNNY     46  23  40 S7        30.11F
MEDICINE LODGE   N/A     46  26  45 SE6       30.08F
NEWTON         SUNNY     45  21  39 E6        30.13F
PARSONS        SUNNY     48  24  39 VRB7      30.16F
WICHITA INTL   PTSUNNY   48  23  37 E7        30.10F
WICHITA JABRA  SUNNY     48  23  37 SE8       30.11F
WINFIELD       MOSUNNY   49  25  39 E10       30.10F
$$

KSZ007>012-019>026-033>040-048>060-102>105-202000-
NORTHEAST KANSAS

CITY           SKY/WX    TMP DP  RH WIND       PRES   REMARKS
CONCORDIA      SUNNY     39  19  44 SE12      30.14F WCI  32
EMPORIA        SUNNY     41  19  41 SE8       30.16F
LAWRENCE       SUNNY     39  18  42 N9        30.21F
MANHATTAN      SUNNY     40  19  43 E9        30.18F
OLATHE IND     SUNNY     38  18  44 NE6       30.21F
OLATHE EXE     SUNNY     38  18  44 NE8       30.19F
SALINA         SUNNY     44  19  36 SE8       30.14F
TOPEKA BILLARD SUNNY     40  19  43 E7        30.21F
TOPEKA FORBES  SUNNY     40  19  43 VRB6      30.19F
$$


USA.gov is the U.S. government's official web portal to all federal, state and local government web resources and services.